Regional Weather Roundup
Issued by NWS

Home | Current Version | Previous Version | Graphics & Text | Print | Product List | Glossary On
Versions: 1 2 3 4 5 6 7 8 9 10 11 12 13 14 15 16 17 18 19 20 21 22 23 24 25 26 27 28 29 30 31 32 33 34 35 36 37 38 39 40 41 42 43 44 45 46 47 48 49 50
000
ASUS45 KBOI 271510
RWRID
WEATHER ROUNDUP FOR IDAHO
NATIONAL WEATHER SERVICE BOISE ID
900 AM MDT WED AUG 27 2014

NOTE: "FAIR" INDICATES FEW OR NO CLOUDS BELOW 12000 FEET
WITH NO SIGNIFICANT WEATHER AND/OR OBSTRUCTIONS TO VISIBILITY

IDZ012-014-271600-
SOUTHWEST IDAHO


CITY           SKY/WX    TMP DP  RH WIND       PRES   REMARKS
BOISE          SUNNY     67  45  45 SE3       30.14R
CALDWELL       SUNNY     61  45  55 SE3       30.15S
MOUNTAIN HOME  SUNNY     64  49  58 E6        30.16R
$$

IDZ016-017-271600-
SOUTHCENTRAL IDAHO


CITY           SKY/WX    TMP DP  RH WIND       PRES   REMARKS
BURLEY         SUNNY     59  51  75 SW5       30.21R
JEROME         SUNNY     59  49  69 E10       30.21R
TWIN FALLS     SUNNY     64  50  60 S10       30.20R
$$

IDZ019>023-271600-
SOUTHEAST IDAHO


CITY           SKY/WX    TMP DP  RH WIND       PRES   REMARKS
IDAHO FALLS    MOSUNNY   56  50  80 CALM      30.24R
POCATELLO      SUNNY     59  51  75 SW5       30.23R
REXBURG        SUNNY     53  46  77 NE3       30.24S
$$

IDZ006-010-011-018-031-032-271600-
CENTRAL IDAHO MOUNTAINS


CITY           SKY/WX    TMP DP  RH WIND       PRES   REMARKS
MCCALL         SUNNY     52  41  66 CALM      30.24R
HAILEY         SUNNY     55  45  67 NW12G17   30.28S
STANLEY          N/A     45  39  79 CALM      30.35S
SALMON         SUNNY     52  48  87 CALM      30.24S
CHALLIS        SUNNY     53  45  74 CALM      30.28R
$$

IDZ002-004-006-007-026-271600-
NORTHERN IDAHO


CITY           SKY/WX    TMP DP  RH WIND       PRES   REMARKS
LEWISTON       SUNNY     64  48  56 E6        30.07S
LOWELL           N/A     52  49  89 CALM      30.18S
COEUR D`ALENE  SUNNY     63  52  67 SE6       30.08S
MULLAN PASS    SUNNY     60  39  45 SW3       30.25R
$$



USA.gov is the U.S. government's official web portal to all federal, state and local government web resources and services.